Vertical_Velocity
1 2 -0 -1 -2 1 -1 1 -1 -0 2 -6 -4 -3 -2 -4 -2 -2 -2 -3 -3 -0 5 1 -0 -4 -2 -2 -2 -1 -2 -0 -1 -1 -0 2 1 -1 -1 -3 -4 -3 -4
5 -4 3 1 0 5 0 -3 1 -0 -2 -2 -5 -3 -1 -1 -7 -4 -3 -5 -5 -2 -1 -1 -1 -1 -1 -1 1 -0 -0 -1 -2 -3 -2 4 -0 -0 0 -3 -2 -7 -5
3 2 3 -1 3 1 0 -2 -0 2 -0 1 -2 -1 -1 -3 -2 0 3 1 -1 -2 -2 -2 -2 -5 0 -0 0 1 1 0 1 -0 -1 2 -0 -2 -0 0 -1 -1 -4
3 0 3 3 -7 -2 2 0 1 -0 2 -1 -2 -1 -4 -4 -3 -3 1 3 -2 7 -4 -2 -2 0 0 -0 -1 -2 -2 -1 -0 -1 -1 2 1 4 4 0 1 -0 1
1 0 1 -2 2 2 -1 -3 2 1 -3 -5 -3 -3 -2 -1 -1 -3 -6 -4 -6 -2 0 -1 -1 1 1 -1 0 -1 -3 -2 -1 -1 0 0 -1 0 2 3 2 1 -1
1 3 -4 -1 1 1 -1 1 1 2 -1 -1 2 -0 -4 -2 -3 -0 0 1 -0 -5 -5 -7 6 15 -8 -3 -1 -2 -2 -1 -1 -0 -0 -2 -1 -2 -2 -3 -2 -3 -2
2 -2 1 2 -0 -0 5 3 1 -1 -4 -3 -1 1 -1 -6 -6 -2 -1 2 3 -2 -0 -0 -5 -1 13 3 -7 -5 -1 -4 -2 -1 -1 -1 -2 -2 -1 -1 1 1 -1
-2 1 -2 -0 3 0 1 1 -0 -1 1 -2 -1 -6 0 10 -5 -1 2 -2 -0 -1 3 -2 -3 -2 -2 0 7 1 -2 -1 -1 -1 -2 -2 -1 0 -0 -0 -1 2 -1
1 -4 3 -2 1 1 -2 0 -0 -1 2 -1 -1 -5 1 5 1 15 -2 -3 0 1 0 1 5 -0 -2 -5 -6 4 -2 -5 -4 -3 -2 -0 0 -1 -1 -2 -2 -1 -1
0 2 1 1 -2 1 -0 -2 -3 -5 3 1 -5 -5 -6 -1 1 3 -1 -6 -8 0 1 -2 -3 -2 0 0 5 -1 -3 2 1 0 1 1 0 1 -1 -2 -2 -1 -2
2 1 0 1 2 1 -2 -2 -4 1 -5 -1 -4 -5 -1 5 0 1 -2 9 3 6 -1 -2 2 -1 -1 -6 -2 7 -4 -0 -1 -1 -1 -2 -5 -7 -6 -6 -3 -1 0
-1 -2 1 2 3 4 -1 2 3 1 -2 -2 1 -2 -2 1 6 3 2 -1 1 -4 3 -4 -3 1 -1 -2 -2 -5 -2 -1 -1 -1 -1 -3 -2 -2 -2 -2 -2 -1 -3
-5 -4 -2 -2 -0 1 -1 0 1 7 6 1 -1 2 -0 -1 -1 -3 -1 -2 -2 0 2 -3 -5 -6 -2 -4 3 -4 -3 -3 -1 -0 0 1 0 -1 -1 0 1 1 -1
2 1 3 0 2 1 -0 1 2 3 -7 2 2 -2 3 3 2 -1 -2 3 -4 -2 -2 -0 -6 -5 -3 -8 0 -6 -4 1 -6 -2 -2 -2 -2 -2 -2 -1 -0 -1 -1
1 2 3 2 1 6 3 6 2 3 -2 -3 4 -9 -12 5 -0 2 1 -1 3 -1 -5 -2 -2 -6 -16 -4 7 -5 -4 3 -3 0 -0 -0 -2 -1 -1 -1 -2 -3 -2
-2 1 1 -1 5 1 11 6 4 -1 4 -4 -4 -7 0 0 -4 2 -1 -2 0 2 1 1 -6 1 -5 -2 4 -4 -1 -4 -2 -3 -3 -1 -1 -1 -1 -1 -2 -1 0
3 5 2 7 4 8 6 -3 8 -4 5 0 -0 -2 -2 2 -2 -1 -0 -4 -1 -0 4 -4 3 3 -5 -12 -2 2 -2 -3 -2 0 -4 -0 -1 -2 -4 -1 1 -0 0
5 5 6 1 4 9 -6 -0 0 0 -15 10 -2 3 2 3 2 -3 1 -1 1 -1 6 -0 -0 -5 3 0 -1 -4 -2 -3 -4 1 -4 0 -0 -3 0 -1 -2 -1 -1
-2 0 2 1 8 9 9 2 2 -10 3 4 -2 -4 3 1 -0 -3 6 -1 1 8 1 -2 -9 -1 -3 3 0 2 -0 -4 -4 -1 -4 -3 -4 -3 -2 -3 -1 -2 0
-2 -0 2 4 9 9 -0 2 -9 2 2 -0 1 1 1 -0 -3 0 6 1 -7 -2 2 1 0 -4 0 1 -2 -5 -3 2 -5 -2 -1 -2 -11 -5 -7 -7 -5 -2 0
-0 1 2 5 -5 -4 -13 0 3 3 3 2 -1 3 1 -2 2 -2 -1 5 11 0 -2 1 -2 1 -3 3 5 3 -8 -1 -6 -2 -3 -1 -5 -4 0 7 -2 2 -2
2 2 1 -3 -8 -1 1 3 4 2 -0 2 -2 -1 -1 -0 -5 2 1 0 -1 2 1 5 -5 -2 -7 1 0 -1 0 -0 -7 0 -1 -5 -4 -2 -4 -2 9 -4 -1
-2 -6 -2 -3 -1 1 2 2 1 -2 -2 -1 -0 -2 -3 3 2 0 -4 1 -0 0 -1 -1 2 -0 0 -3 4 -3 -0 2 -1 -4 -2 -4 -1 -2 -4 -2 12 -2 2
-1 -0 -1 -1 -2 -0 -1 -2 -0 0 -2 -3 -0 0 2 -1 -1 4 0 4 -0 4 -2 -2 -6 -2 0 -2 -1 -2 -1 -6 -6 -2 4 -2 -2 -3 -0 -6 -2 -2 -0
-2 -4 1 1 -1 0 -4 1 0 0 -2 -2 1 -2 0 -0 3 -2 1 1 -4 -0 -3 -1 -3 -0 -3 -1 0 -0 -5 1 -6 -3 -2 5 -4 -5 -1 -7 7 15 1
0 -1 0 -1 -3 -3 -3 1 3 3 -2 -2 -1 -2 1 -2 1 1 1 2 -6 -6 12 14 -5 1 2 -1 -1 3 2 -0 0 -4 8 1 2 -1 -7 -7 -2 -2 -4
Height
1580 1581 1583 1585 1587 1587 1589 1591 1590 1590 1590 1590 1591 1592 1590 1590 1588 1587 1587 1584 1585 1584 1585 1583 1581 1580 1580 1579 1577 1576 1575 1574 1572 1570 1569 1567 1566 1564 1561 1559 1557 1556 1556
1580 1580 1584 1583 1586 1587 1588 1589 1589 1590 1589 1589 1589 1590 1589 1588 1586 1585 1586 1582 1582 1583 1583 1582 1581 1580 1579 1577 1576 1575 1574 1573 1571 1570 1569 1567 1565 1563 1560 1558 1555 1555 1553
1579 1579 1582 1583 1584 1585 1586 1587 1587 1588 1588 1588 1588 1587 1585 1585 1584 1583 1584 1583 1581 1580 1581 1580 1579 1578 1577 1576 1575 1573 1572 1571 1570 1568 1567 1566 1564 1561 1558 1556 1554 1553 1551
1578 1579 1581 1581 1583 1584 1584 1584 1585 1586 1586 1586 1586 1584 1583 1583 1582 1582 1583 1582 1581 1581 1578 1577 1576 1575 1574 1573 1572 1570 1569 1568 1567 1566 1565 1563 1561 1560 1557 1555 1553 1550 1549
1576 1577 1579 1578 1581 1581 1581 1583 1584 1582 1584 1583 1583 1581 1581 1581 1579 1579 1578 1578 1577 1578 1578 1574 1573 1572 1570 1569 1567 1566 1565 1565 1564 1563 1561 1560 1558 1556 1554 1552 1550 1548 1546
1573 1575 1576 1576 1577 1578 1579 1579 1581 1580 1581 1583 1582 1579 1578 1578 1577 1577 1576 1575 1573 1572 1572 1572 1571 1570 1566 1564 1562 1561 1561 1560 1560 1559 1557 1556 1554 1552 1550 1548 1546 1545 1543
1570 1572 1572 1572 1574 1574 1576 1576 1576 1577 1578 1579 1579 1579 1576 1573 1573 1574 1573 1572 1571 1570 1569 1568 1567 1567 1565 1559 1557 1556 1555 1555 1555 1554 1553 1551 1549 1547 1545 1544 1542 1540 1539
1566 1568 1568 1569 1570 1571 1571 1572 1574 1575 1576 1575 1576 1575 1574 1572 1570 1569 1568 1568 1567 1566 1566 1563 1562 1560 1559 1559 1556 1552 1550 1549 1549 1548 1547 1545 1544 1542 1540 1539 1537 1536 1534
1563 1563 1565 1565 1566 1567 1568 1569 1570 1572 1573 1571 1572 1573 1572 1569 1568 1566 1564 1564 1564 1563 1562 1560 1559 1556 1554 1553 1551 1549 1543 1543 1542 1542 1541 1540 1538 1537 1535 1533 1531 1529 1527
1558 1559 1560 1561 1562 1563 1564 1565 1566 1568 1569 1568 1566 1566 1565 1565 1564 1563 1560 1559 1558 1558 1557 1556 1554 1551 1549 1547 1546 1541 1539 1538 1537 1536 1534 1533 1531 1529 1528 1526 1524 1522 1520
1553 1554 1555 1556 1557 1558 1559 1560 1561 1562 1563 1563 1562 1560 1560 1560 1559 1558 1557 1557 1555 1554 1553 1551 1548 1547 1545 1542 1541 1539 1534 1533 1532 1530 1528 1526 1524 1522 1519 1518 1516 1515 1513
1547 1548 1550 1552 1553 1554 1554 1555 1556 1556 1556 1556 1555 1555 1558 1557 1556 1555 1553 1552 1551 1550 1547 1545 1543 1542 1541 1538 1535 1532 1529 1527 1525 1523 1521 1518 1515 1512 1510 1508 1506 1505 1504
1540 1542 1544 1545 1547 1548 1549 1550 1550 1552 1552 1549 1548 1550 1551 1551 1550 1549 1549 1547 1546 1544 1542 1540 1539 1538 1536 1534 1533 1527 1524 1521 1519 1516 1513 1510 1507 1504 1501 1498 1497 1495 1494
1535 1537 1538 1539 1540 1542 1542 1545 1546 1546 1547 1548 1545 1547 1549 1547 1545 1544 1544 1543 1541 1539 1537 1535 1534 1533 1532 1530 1527 1522 1520 1517 1511 1509 1506 1502 1499 1496 1494 1491 1488 1486 1485
1529 1530 1532 1533 1534 1534 1537 1538 1540 1540 1540 1544 1540 1541 1544 1546 1544 1541 1540 1539 1538 1534 1532 1530 1529 1528 1526 1525 1522 1518 1514 1511 1504 1501 1498 1494 1491 1488 1485 1482 1479 1478 1477
1522 1524 1526 1527 1528 1529 1530 1533 1535 1535 1535 1538 1537 1535 1539 1540 1540 1538 1536 1535 1534 1532 1527 1526 1525 1523 1521 1519 1516 1511 1507 1502 1497 1493 1489 1487 1484 1480 1476 1473 1470 1468 1467
1515 1517 1519 1519 1521 1522 1524 1527 1527 1531 1535 1534 1531 1532 1534 1534 1533 1533 1531 1530 1529 1526 1523 1520 1519 1518 1514 1512 1510 1506 1502 1497 1493 1489 1483 1480 1476 1471 1468 1465 1462 1460 1458
1510 1512 1513 1512 1512 1516 1518 1521 1523 1525 1528 1529 1527 1529 1529 1529 1527 1528 1526 1523 1522 1521 1519 1515 1514 1512 1509 1507 1503 1499 1496 1492 1488 1484 1477 1473 1468 1465 1461 1458 1455 1453 1452
1505 1506 1507 1507 1509 1513 1516 1516 1518 1523 1523 1523 1521 1522 1522 1521 1521 1521 1519 1517 1516 1515 1513 1511 1507 1506 1503 1500 1497 1494 1490 1487 1483 1478 1472 1467 1462 1459 1455 1452 1450 1448 1446
1500 1502 1502 1504 1507 1510 1512 1514 1516 1518 1517 1516 1515 1515 1515 1514 1514 1514 1513 1511 1510 1508 1506 1504 1501 1499 1497 1494 1491 1488 1485 1482 1478 1474 1469 1464 1459 1455 1451 1447 1444 1442 1440
1497 1499 1500 1503 1506 1509 1511 1512 1513 1512 1511 1509 1509 1510 1509 1506 1506 1505 1505 1504 1502 1500 1499 1497 1494 1492 1490 1487 1485 1483 1479 1476 1472 1469 1464 1461 1458 1453 1449 1445 1442 1438 1436
1497 1499 1501 1504 1507 1508 1508 1508 1507 1505 1505 1505 1504 1503 1502 1500 1496 1495 1494 1494 1494 1493 1491 1490 1487 1484 1482 1481 1479 1477 1474 1471 1466 1465 1460 1455 1452 1448 1444 1441 1438 1434 1431
1497 1500 1502 1503 1504 1504 1503 1502 1502 1501 1500 1500 1499 1497 1495 1493 1490 1487 1485 1484 1483 1482 1481 1480 1478 1477 1476 1475 1473 1471 1469 1466 1462 1459 1456 1450 1448 1443 1439 1436 1432 1429 1426
1498 1499 1500 1500 1499 1498 1498 1498 1498 1496 1495 1494 1492 1490 1488 1485 1483 1481 1479 1477 1475 1474 1471 1469 1468 1469 1468 1468 1467 1465 1463 1459 1456 1454 1452 1445 1443 1438 1435 1431 1426 1423 1420
1496 1496 1496 1496 1496 1497 1495 1495 1493 1491 1489 1487 1485 1482 1479 1476 1474 1472 1471 1468 1467 1465 1463 1461 1460 1460 1459 1458 1458 1457 1456 1455 1451 1448 1446 1442 1438 1434 1430 1425 1422 1419 1416
1494 1494 1494 1493 1492 1491 1491 1490 1488 1485 1482 1478 1476 1472 1469 1466 1465 1463 1461 1459 1456 1455 1456 1453 1450 1449 1450 1449 1448 1448 1450 1449 1447 1443 1442 1438 1434 1431 1424 1421 1419 1416 1411